"Pseudo-MPEC" for C3M5CE2

Created 2020 Oct 19 5:07:21 UT using Find_Orb

Click here for an explanation of pseudo-MPECs

 
 Astrometry: 
     C3M5CE2  C2020 10 13jUp3As#MbAstrometryp9lqaoULe0YEX95tlDu\hP,UK2iSt:Fg1F51
     C3M5CE2  C2020 10 13.6f4UPnTln'T:)vHY(X+.jt?h`yJPf9+p-9cg-DvG$redacted;%F51
     C3M5CE2  C2020 10 13w'9_xh)L^;!:KlZdQQKknmRlclickCTqHQx;W79tf^w'_9ue,0O7F51
     C3M5CE2  C2020 10 18.22873223 38 27.76 -05 20 34.4    ~AI6M 21.68GVNEOCPG96
     C3M5CE2  C2020 10 18.23395223 38 25.38 -05 19 45.7    ~AI6M 20.92GVNEOCPG96
     C3M5CE2  C2020 10 18.23917023 38 22.85 -05 18 56.6    ~AI6M 20.65GVNEOCPG96
     C3M5CE2  C2020 10 18.24437023 38 20.39 -05 18 07.6    ~AI6M       VNEOCPG96
     C3M5CE2 KC2020 10 18.31850923 37 45.50 -05 06 31.7    ~AI87       VNEOCPV06
     C3M5CE2 KC2020 10 18.32028823 37 44.69 -05 06 14.5    ~AI87 20.87GVNEOCPV06
     C3M5CE2 KC2020 10 18.32206423 37 43.85 -05 05 57.8    ~AI87 20.76GVNEOCPV06
     C3M5CE2 KC2020 10 18.32384223 37 43.00 -05 05 41.2    ~AI87 20.64GVNEOCPV06
     C3M5CE2 KC2020 10 18;U(/[!E5Lm@JcR;R6B63#Py;f/D$JS`3hereUuhd;H+?1][giK0YL01
     C3M5CE2 KC2020 10 1883/f$_O#cSVfor#ffSU@=JhiS9$u(O+bAK:+*y4-h=?T)rcJjgllL01
     C3M5CE2 KC2020 10 18WF,5Ah?P`xV]`SrGo`dinna2Qy0xexplanationV0^F+LeeW%d3ZL01
     C3M5CE2 KC2020 10 18GM3?t)Y^rNR3`J?_5=pyUp+'[J^`4Kt\x.UL751c==vWh;pW2fVgL01
     C3M5CE2 KC2020 10 186;Iqf-23,61:F^+5InRfEc.:Ye'Bn6]q.I%t$lZn#O:;ZO)[+(xmL01
     C3M5CE2 KC2020 10 19.16906723 31 23.81 -02 54 59.1    ~AJ4M 21.33GVNEOCPI52
     C3M5CE2 KC2020 10 19.17158823 31 22.67 -02 54 35.8    ~AJ4M 20.48GVNEOCPI52
     C3M5CE2 KC2020 10 19.17410923 31 21.54 -02 54 13.5    ~AJ4M 20.43GVNEOCPI52

Station data:
(F51) Pan-STARRS 1, Haleakala  (N20.707235 W156.255910)  US/Hawaii.
   Observers N. Primak, A. Schultz, S. Watters, J. Thiel, T. Goggia. Measurer
   PS1 Science Consortium. 1.8-m Ritchey-Chrétien + CCD.
(G96) Mt. Lemmon Survey  (N32.442754 W110.788720)  US/Arizona.  Observers T.
   A. Pruyne, B. M. Africano, E. J. Christensen, G. A. Farneth, D. C. Fuls,
   A. R. Gibbs, A. D. Grauer, H. Gröller, J. A. Johnson, R. A. Kowalski, S.
   M. Larson, G. J. Leonard, D. Rankin, R. L. Seaman, F. C. Shelly. 1.5-m
   reflector + 10K CCD.
(I52) Steward Observatory, Mt. Lemmon Station  (N32.442547 W110.788920)
   US/Arizona.  Observers T. A. Pruyne, B. M. Africano, E. J. Christensen, G.
   A. Farneth, D. C. Fuls, A. R. Gibbs, A. D. Grauer, H. Gröller, J. A.
   Johnson, R. A. Kowalski, S. M. Larson, G. J. Leonard, D. Rankin, R. L.
   Seaman, F. C. Shelly. 1.0-m reflector + CCD.
(L01) Višnjan Observatory, Tičan  (N45.290900 E13.749300)  Croatia.
   Observers K. Korlević, E. Pettarin. Measurer E. Pettarin. 1.0-m f/2.9
   reflector + CCD.
(V06) Catalina Sky Survey-Kuiper  (N32.416847 W110.732550)  US/Arizona.
   Observers T. A. Pruyne, B. M. Africano, E. J. Christensen, G. A. Farneth,
   D. C. Fuls, A. R. Gibbs, A. D. Grauer, H. Gröller, J. A. Johnson, R. A.
   Kowalski, S. M. Larson, G. J. Leonard, D. Rankin, R. L. Seaman, F. C.
   Shelly. 1.55-m reflector + CCD.

Orbital elements:  C3M5CE2
   Perihelion 2020 Oct 17.716840 +/- 0.045 TT = 17:12:15 (JD 2459140.216840)
Epoch 2020 Oct 19.0 TT = JDT 2459141.5   Earth MOID: 0.2337   AutoNEOCP
M   0.32245021 +/- 0.0045           (J2000 ecliptic)
n   0.25129382 +/- 0.0058           Peri.  358.76211 +/- 0.041
a   2.48703278 +/- 0.0383           Node    18.88654 +/- 0.025
e   0.5047621 +/- 0.00719           Incl.   50.06561 +/- 0.18
P   3.92                   H 22.4   G  0.15   U  9.3  
q 1.23167266 +/- 0.00111    Q 3.74239290 +/- 0.0774
From 19 observations 2020 Oct. 13-19; mean residual 0".25
Residuals in arcseconds: 
201013 F51  .13+  .13-    201018 V06  .16-  .39-    201018 L01  .33-  .34+    
201013 F51  .17+  .09-    201018 V06  .19+  .11+    201018 L01  .28+  .07-    
201013 F51  .31-  .22+    201018 V06  .06+  .14+    201019 I52  .11-  .10+    
201018 G96  .45-  .19+    201018 V06  .20-  .05+    201019 I52  .08-  .28+    
201018 G96  .85+  .17-    201018 L01  .24-  .13+    201019 I52  .11+  .53-    
201018 G96  .12-  .10-    201018 L01  .20+  .01-    
201018 G96  .18-  .03+    201018 L01  .22+  .05-    

Ephemerides (geocentric):
Date (UTC) HH   RA              Dec         delta   r     elong  mag " sig PA
---- -- -- --  -------------   -----------  ------ ------ -----  --- ---- ---
2020 10 19 05  23 31 06.007   -02 48 40.79  .27231 1.2318 146.3 21.2 .216  22
2020 10 19 06  23 30 47.641   -02 42 19.35  .27250 1.2318 146.2 21.2 .227  23
2020 10 19 07  23 30 29.311   -02 35 58.39  .27269 1.2318 146.1 21.2 .238  24
2020 10 19 08  23 30 11.016   -02 29 37.90  .27288 1.2318 146.0 21.2 .249  24
2020 10 19 09  23 29 52.757   -02 23 17.90  .27308 1.2318 146.0 21.2 .260  25
2020 10 19 10  23 29 34.533   -02 16 58.39  .27327 1.2318 145.9 21.2 .272  26
2020 10 19 11  23 29 16.344   -02 10 39.37  .27347 1.2318 145.8 21.2 .283  27
2020 10 19 12  23 28 58.191   -02 04 20.85  .27367 1.2318 145.8 21.3 .295  27
2020 10 19 13  23 28 40.073   -01 58 02.83  .27387 1.2318 145.7 21.3 .307  28
2020 10 19 14  23 28 21.991   -01 51 45.31  .27407 1.2318 145.6 21.3 .319  29
2020 10 19 15  23 28 03.944   -01 45 28.30  .27428 1.2319 145.5 21.3 .331  29
2020 10 19 16  23 27 45.933   -01 39 11.81  .27448 1.2319 145.5 21.3 .344  30
2020 10 19 17  23 27 27.957   -01 32 55.83  .27469 1.2319 145.4 21.3 .356  30
2020 10 19 18  23 27 10.017   -01 26 40.37  .27490 1.2319 145.3 21.3 .369  31
2020 10 19 19  23 26 52.113   -01 20 25.44  .27511 1.2319 145.2 21.3 .382  32
2020 10 19 20  23 26 34.244   -01 14 11.04  .27532 1.2319 145.2 21.3 .395  32
2020 10 19 21  23 26 16.410   -01 07 57.16  .27553 1.2319 145.1 21.3 .408  32
2020 10 19 22  23 25 58.613   -01 01 43.83  .27575 1.2319 145.0 21.3 .421  33
2020 10 19 23  23 25 40.850   -00 55 31.03  .27596 1.2319 144.9 21.3 .434  33
2020 10 20 00  23 25 23.124   -00 49 18.78  .27618 1.2319 144.9 21.3 .448  34
2020 10 20 01  23 25 05.433   -00 43 07.07  .27640 1.2319 144.8 21.3 .461  34
2020 10 20 02  23 24 47.777   -00 36 55.91  .27662 1.2319 144.7 21.3 .475  35
2020 10 20 03  23 24 30.158   -00 30 45.31  .27684 1.2320 144.6 21.3 .489  35
2020 10 20 04  23 24 12.573   -00 24 35.26  .27706 1.2320 144.6 21.3 .503  35
2020 10 20 05  23 23 55.025   -00 18 25.77  .27729 1.2320 144.5 21.3 .517  36
2020 10 20 06  23 23 37.512   -00 12 16.85  .27751 1.2320 144.4 21.3 .532  36
2020 10 20 07  23 23 20.035   -00 06 08.49  .27774 1.2320 144.3 21.3 .546  36
2020 10 20 08  23 23 02.594   -00 00 00.71  .27797 1.2320 144.2 21.3 .561  37
2020 10 20 09  23 22 45.188   +00 06 06.51  .27820 1.2320 144.2 21.3 .576  37
2020 10 20 10  23 22 27.817   +00 12 13.14  .27843 1.2320 144.1 21.3 .590  37
2020 10 20 11  23 22 10.483   +00 18 19.20  .27866 1.2320 144.0 21.3 .605  38
2020 10 20 12  23 21 53.184   +00 24 24.67  .27890 1.2321 143.9 21.3 .621  38
2020 10 20 13  23 21 35.921   +00 30 29.56  .27914 1.2321 143.8 21.3 .636  38
2020 10 20 14  23 21 18.693   +00 36 33.86  .27937 1.2321 143.8 21.3 .651  39
2020 10 20 15  23 21 01.501   +00 42 37.56  .27961 1.2321 143.7 21.3 .667  39
2020 10 20 16  23 20 44.345   +00 48 40.67  .27985 1.2321 143.6 21.3 .682  39
2020 10 20 17  23 20 27.225   +00 54 43.18  .28009 1.2321 143.5 21.3 .698  39
2020 10 20 18  23 20 10.140   +01 00 45.10  .28034 1.2321 143.4 21.4 .714  40
2020 10 20 19  23 19 53.090   +01 06 46.40  .28058 1.2321 143.4 21.4 .730  40
2020 10 20 20  23 19 36.077   +01 12 47.11  .28083 1.2322 143.3 21.4 .746  40
2020 10 20 21  23 19 19.099   +01 18 47.20  .28108 1.2322 143.2 21.4 .763  41
2020 10 20 22  23 19 02.156   +01 24 46.68  .28132 1.2322 143.1 21.4 .779  41
2020 10 20 23  23 18 45.250   +01 30 45.55  .28157 1.2322 143.0 21.4 .796  41
2020 10 21 00  23 18 28.378   +01 36 43.79  .28183 1.2322 143.0 21.4 .812  41
2020 10 21 01  23 18 11.543   +01 42 41.42  .28208 1.2322 142.9 21.4 .829  42
2020 10 21 02  23 17 54.743   +01 48 38.43  .28233 1.2322 142.8 21.4 .846  42
2020 10 21 03  23 17 37.979   +01 54 34.81  .28259 1.2322 142.7 21.4 .863  42
2020 10 21 04  23 17 21.250   +02 00 30.57  .28285 1.2323 142.6 21.4 .880  42